| time (UTC) | temp F | wind direction | speed MPH | gust MPH | rain 1hr in | rain 24hr in | rain mn in | humidity % | barometer mb |
| 20260906070514 | 69 | 137 | 0.0 | 5.0 | 0.00 | 0.00 | 0.00 | 90 | 1018.3 |
| 20260906070024 | 69 | 141 | 1.0 | 5.0 | 0.00 | 0.00 | 0.00 | 90 | 1018.2 |
| 20260906065507 | 69 | 155 | 0.0 | 1.0 | 0.00 | 0.00 | 0.00 | 90 | 1018.3 |
| 20260906065009 | 69 | 140 | 0.0 | 2.0 | 0.00 | 0.00 | 0.00 | 90 | 1018.3 |
| 20260906064530 | 69 | 140 | 1.0 | 2.0 | 0.00 | 0.00 | 0.00 | 90 | 1018.3 |
| 20260906064015 | 69 | 153 | 0.0 | 1.0 | 0.00 | 0.00 | 0.00 | 90 | 1018.3 |
| 20260906063508 | 69 | 153 | 0.0 | 1.0 | 0.00 | 0.00 | 0.00 | 90 | 1018.5 |
| 20260906063024 | 69 | 121 | 0.0 | 1.0 | 0.00 | 0.00 | 0.00 | 90 | 1018.5 |
| 20260906062507 | 69 | 117 | 0.0 | 1.0 | 0.00 | 0.00 | 0.00 | 90 | 1018.5 |
| 20260906062007 | 69 | 117 | 0.0 | 1.0 | 0.00 | 0.00 | 0.00 | 90 | 1018.5 |
| 20260906061512 | 69 | 117 | 0.0 | 1.0 | 0.00 | 0.00 | 0.00 | 89 | 1018.5 |
| 20260906061009 | 69 | 117 | 0.0 | 1.0 | 0.00 | 0.00 | 0.00 | 89 | 1018.5 |
| 20260906060511 | 69 | 117 | 0.0 | 1.0 | 0.00 | 0.00 | 0.00 | 89 | 1018.5 |
| 20260906060015 | 69 | 117 | 0.0 | 1.0 | 0.00 | 0.00 | 0.00 | 89 | 1018.5 |
| 20260906055513 | 69 | 117 | 0.0 | 1.0 | 0.00 | 0.00 | 0.00 | 89 | 1018.6 |
| 20260906055018 | 69 | 117 | 0.0 | 1.0 | 0.00 | 0.00 | 0.00 | 89 | 1018.6 |
| 20260906054528 | 69 | 117 | 0.0 | 1.0 | 0.00 | 0.00 | 0.00 | 89 | 1018.6 |
| 20260906054012 | 70 | 117 | 0.0 | 0.0 | 0.00 | 0.00 | 0.00 | 89 | 1018.7 |
| 20260906053520 | 70 | 117 | 0.0 | 0.0 | 0.00 | 0.00 | 0.00 | 89 | 1018.7 |
| 20260906053032 | 70 | 117 | 0.0 | 0.0 | 0.00 | 0.00 | 0.00 | 88 | 1018.7 |
| 20260906052508 | 70 | 117 | 0.0 | 0.0 | 0.00 | 0.00 | 0.00 | 88 | 1018.6 |
| 20260906052012 | 70 | 117 | 0.0 | 0.0 | 0.00 | 0.00 | 0.00 | 88 | 1018.7 |
| 20260906051530 | 70 | 117 | 0.0 | 0.0 | 0.00 | 0.00 | 0.00 | 88 | 1018.8 |
| 20260906051018 | 70 | 117 | 0.0 | 0.0 | 0.00 | 0.00 | 0.00 | 88 | 1018.7 |
| 20260906050510 | 70 | 117 | 0.0 | 0.0 | 0.00 | 0.00 | 0.00 | 88 | 1018.6 |
| 20260906050017 | 70 | 117 | 0.0 | 0.0 | 0.00 | 0.00 | 0.00 | 88 | 1018.7 |
| 20260906045516 | 71 | 117 | 0.0 | 0.0 | 0.00 | 0.00 | 0.00 | 88 | 1018.6 |
| 20260906045012 | 71 | 117 | 0.0 | 0.0 | 0.00 | 0.00 | 0.00 | 88 | 1018.5 |
| 20260906044520 | 71 | 117 | 0.0 | 0.0 | 0.00 | 0.00 | 0.00 | 88 | 1018.5 |
| 20260906044016 | 71 | 117 | 0.0 | 0.0 | 0.00 | 0.00 | 0.00 | 88 | 1018.4 |
| 20260906043518 | 71 | 117 | 0.0 | 0.0 | 0.00 | 0.00 | 0.00 | 88 | 1018.5 |
| 20260906043026 | 71 | 117 | 0.0 | 0.0 | 0.00 | 0.00 | 0.00 | 88 | 1018.6 |
| 20260906042515 | 71 | 117 | 0.0 | 0.0 | 0.00 | 0.00 | 0.00 | 87 | 1018.6 |
| 20260906042018 | 71 | 117 | 0.0 | 0.0 | 0.00 | 0.00 | 0.00 | 87 | 1018.5 |
| 20260906041536 | 71 | 117 | 0.0 | 0.0 | 0.00 | 0.00 | 0.00 | 88 | 1018.4 |
| 20260906041007 | 71 | 117 | 0.0 | 0.0 | 0.00 | 0.00 | 0.00 | 88 | 1018.4 |
| 20260906040507 | 71 | 117 | 0.0 | 0.0 | 0.00 | 0.00 | 0.00 | 88 | 1018.3 |
| 20260906040025 | 71 | 117 | 0.0 | 0.0 | 0.00 | 0.00 | 0.00 | 87 | 1018.3 |
| 20260906035508 | 72 | 117 | 0.0 | 0.0 | 0.00 | 0.00 | 0.00 | 87 | 1018.4 |
| 20260906035010 | 72 | 117 | 0.0 | 0.0 | 0.00 | 0.00 | 0.00 | 87 | 1018.4 |
| 20260906034504 | 72 | 117 | 0.0 | 0.0 | 0.00 | 0.00 | 0.00 | 87 | 1018.4 |
| 20260906034008 | 72 | 117 | 0.0 | 0.0 | 0.00 | 0.00 | 0.00 | 87 | 1018.4 |
| 20260906033513 | 72 | 117 | 0.0 | 0.0 | 0.00 | 0.00 | 0.00 | 87 | 1018.4 |
| 20260906033026 | 72 | 117 | 0.0 | 0.0 | 0.00 | 0.00 | 0.00 | 87 | 1018.4 |
| 20260906032505 | 72 | 117 | 0.0 | 0.0 | 0.00 | 0.00 | 0.00 | 87 | 1018.4 |
| 20260906032013 | 72 | 117 | 0.0 | 0.0 | 0.00 | 0.00 | 0.00 | 87 | 1018.4 |
| 20260906031544 | 72 | 117 | 0.0 | 0.0 | 0.00 | 0.00 | 0.00 | 87 | 1018.3 |
| 20260906031016 | 72 | 117 | 0.0 | 0.0 | 0.00 | 0.00 | 0.00 | 87 | 1018.3 |
| 20260906030511 | 72 | 117 | 0.0 | 0.0 | 0.00 | 0.00 | 0.00 | 87 | 1018.2 |
| 20260906030008 | 72 | 117 | 0.0 | 0.0 | 0.00 | 0.00 | 0.00 | 87 | 1018.1 |
| 20260906025510 | 72 | 117 | 0.0 | 0.0 | 0.00 | 0.00 | 0.00 | 87 | 1018.2 |
| 20260906025006 | 72 | 117 | 0.0 | 0.0 | 0.00 | 0.00 | 0.00 | 87 | 1018.2 |
| 20260906024516 | 72 | 117 | 0.0 | 0.0 | 0.00 | 0.00 | 0.00 | 87 | 1018.1 |
| 20260906024010 | 72 | 117 | 0.0 | 0.0 | 0.00 | 0.00 | 0.00 | 86 | 1018.0 |
| 20260906023512 | 73 | 117 | 0.0 | 0.0 | 0.00 | 0.00 | 0.00 | 86 | 1018.0 |
| 20260906023012 | 73 | 117 | 0.0 | 1.0 | 0.00 | 0.00 | 0.00 | 86 | 1017.9 |
| 20260906022517 | 73 | 117 | 0.0 | 1.0 | 0.00 | 0.00 | 0.00 | 86 | 1017.8 |
| 20260906022014 | 73 | 117 | 0.0 | 1.0 | 0.00 | 0.00 | 0.00 | 86 | 1017.7 |
| 20260906021510 | 73 | 117 | 0.0 | 1.0 | 0.00 | 0.00 | 0.00 | 86 | 1017.6 |
| 20260906021009 | 73 | 117 | 0.0 | 1.0 | 0.00 | 0.00 | 0.00 | 86 | 1017.5 |
| 20260906020514 | 73 | 117 | 0.0 | 1.0 | 0.00 | 0.00 | 0.00 | 86 | 1017.4 |
| 20260906020037 | 73 | 117 | 0.0 | 1.0 | 0.00 | 0.00 | 0.00 | 86 | 1017.4 |
| 20260906015509 | 73 | 117 | 0.0 | 2.0 | 0.00 | 0.00 | 0.00 | 86 | 1017.3 |
| 20260906015013 | 73 | 117 | 0.0 | 2.0 | 0.00 | 0.00 | 0.00 | 86 | 1017.3 |
| 20260906014516 | 73 | 117 | 0.0 | 1.0 | 0.00 | 0.00 | 0.00 | 85 | 1017.2 |
| 20260906014007 | 73 | 117 | 0.0 | 0.0 | 0.00 | 0.00 | 0.00 | 85 | 1017.2 |
| 20260906013510 | 73 | 117 | 0.0 | 0.0 | 0.00 | 0.00 | 0.00 | 85 | 1017.1 |
| 20260906013016 | 74 | 117 | 0.0 | 1.0 | 0.00 | 0.00 | 0.00 | 85 | 1017.1 |
| 20260906012510 | 74 | 117 | 0.0 | 1.0 | 0.00 | 0.00 | 0.00 | 85 | 1017.0 |
| 20260906012013 | 74 | 117 | 0.0 | 2.0 | 0.00 | 0.00 | 0.00 | 85 | 1016.8 |
| 20260906011523 | 74 | 121 | 1.0 | 2.0 | 0.00 | 0.00 | 0.00 | 85 | 1016.7 |
| 20260906011016 | 74 | 146 | 0.0 | 0.0 | 0.00 | 0.00 | 0.00 | 85 | 1016.7 |
| 20260906010515 | 74 | 146 | 0.0 | 1.0 | 0.00 | 0.00 | 0.00 | 85 | 1016.7 |
| 20260906010016 | 74 | 146 | 0.0 | 2.0 | 0.00 | 0.00 | 0.00 | 85 | 1016.6 |
| 20260906005516 | 74 | 146 | 0.0 | 2.0 | 0.00 | 0.00 | 0.00 | 84 | 1016.6 |
| 20260906005017 | 74 | 51 | 0.0 | 1.0 | 0.00 | 0.00 | 0.00 | 84 | 1016.6 |
| 20260906004515 | 74 | 51 | 0.0 | 1.0 | 0.00 | 0.00 | 0.00 | 84 | 1016.6 |
| 20260906004011 | 74 | 51 | 0.0 | 2.0 | 0.00 | 0.00 | 0.00 | 83 | 1016.5 |
| 20260906003517 | 75 | 107 | 0.0 | 2.0 | 0.00 | 0.00 | 0.00 | 83 | 1016.4 |
| 20260906003011 | 75 | 157 | 0.0 | 1.0 | 0.00 | 0.00 | 0.00 | 82 | 1016.3 |
| 20260906002511 | 75 | 157 | 0.0 | 1.0 | 0.00 | 0.00 | 0.00 | 82 | 1016.4 |
| 20260906002010 | 75 | 157 | 0.0 | 3.0 | 0.00 | 0.00 | 0.00 | 81 | 1016.5 |
| 20260906001518 | 76 | 157 | 0.0 | 3.0 | 0.00 | 0.00 | 0.00 | 81 | 1016.5 |
| 20260906001010 | 76 | 165 | 0.0 | 1.0 | 0.00 | 0.00 | 0.00 | 81 | 1016.5 |
| 20260906000513 | 76 | 165 | 0.0 | 1.0 | 0.00 | 0.00 | 0.00 | 80 | 1016.5 |
| 20260906000027 | 76 | 165 | 0.0 | 1.0 | 0.00 | 0.00 | 0.00 | 80 | 1016.6 |
| 20260905235515 | 76 | 165 | 0.0 | 2.0 | 0.00 | 0.00 | 0.00 | 79 | 1016.5 |
| 20260905235014 | 77 | 165 | 0.0 | 3.0 | 0.00 | 0.00 | 0.00 | 79 | 1016.5 |
| 20260905234525 | 77 | 53 | 0.0 | 3.0 | 0.00 | 0.00 | 0.00 | 79 | 1016.4 |
| 20260905234015 | 77 | 132 | 0.0 | 3.0 | 0.00 | 0.00 | 0.00 | 79 | 1016.4 |
| 20260905233515 | 77 | 128 | 0.0 | 4.0 | 0.00 | 0.00 | 0.00 | 79 | 1016.3 |
| 20260905233022 | 77 | 117 | 0.0 | 4.0 | 0.00 | 0.00 | 0.00 | 78 | 1016.4 |
| 20260905232517 | 77 | 92 | 1.0 | 4.0 | 0.00 | 0.00 | 0.00 | 78 | 1016.3 |
| 20260905232016 | 77 | 64 | 0.0 | 3.0 | 0.00 | 0.00 | 0.00 | 78 | 1016.3 |
| 20260905231527 | 77 | 136 | 0.0 | 2.0 | 0.00 | 0.00 | 0.00 | 78 | 1016.2 |
| 20260905231016 | 77 | 115 | 0.0 | 3.0 | 0.00 | 0.00 | 0.00 | 78 | 1016.2 |
| 20260905230513 | 77 | 109 | 0.0 | 3.0 | 0.00 | 0.00 | 0.00 | 78 | 1016.2 |
| 20260905230020 | 77 | 84 | 0.0 | 3.0 | 0.00 | 0.00 | 0.00 | 78 | 1016.1 |
| 20260905225514 | 77 | 137 | 1.0 | 6.0 | 0.00 | 0.00 | 0.00 | 78 | 1016.0 |
| 20260905225014 | 77 | 132 | 0.0 | 6.0 | 0.00 | 0.00 | 0.00 | 78 | 1016.0 |
| 20260905224526 | 77 | 55 | 0.0 | 5.0 | 0.00 | 0.00 | 0.00 | 78 | 1015.8 |
| 20260905224014 | 77 | 128 | 1.0 | 5.0 | 0.00 | 0.00 | 0.00 | 78 | 1015.8 |
| 20260905223514 | 77 | 44 | 0.0 | 5.0 | 0.00 | 0.00 | 0.00 | 78 | 1015.8 |
| 20260905223031 | 77 | 107 | 1.0 | 5.0 | 0.00 | 0.00 | 0.00 | 78 | 1015.8 |
| 20260905222518 | 77 | 82 | 0.0 | 6.0 | 0.00 | 0.00 | 0.00 | 78 | 1015.8 |
| 20260905222011 | 78 | 130 | 1.0 | 7.0 | 0.00 | 0.00 | 0.00 | 78 | 1015.8 |
| 20260905221529 | 78 | 159 | 1.0 | 7.0 | 0.00 | 0.00 | 0.00 | 77 | 1015.8 |
| 20260905221018 | 78 | 129 | 1.0 | 6.0 | 0.00 | 0.00 | 0.00 | 77 | 1015.9 |
| 20260905220516 | 78 | 45 | 1.0 | 4.0 | 0.00 | 0.00 | 0.00 | 77 | 1015.8 |
| 20260905220018 | 78 | 69 | 2.0 | 4.0 | 0.00 | 0.00 | 0.00 | 77 | 1015.8 |
| 20260905215512 | 78 | 82 | 1.0 | 3.0 | 0.00 | 0.00 | 0.00 | 78 | 1015.8 |
| 20260905215008 | 78 | 118 | 0.0 | 3.0 | 0.00 | 0.00 | 0.00 | 78 | 1015.9 |
| 20260905214523 | 78 | 140 | 0.0 | 4.0 | 0.00 | 0.00 | 0.00 | 78 | 1016.0 |
| 20260905214015 | 78 | 148 | 1.0 | 4.0 | 0.00 | 0.00 | 0.00 | 78 | 1015.9 |
| 20260905213509 | 78 | 98 | 0.0 | 3.0 | 0.00 | 0.00 | 0.00 | 79 | 1015.9 |
| 20260905213018 | 78 | 28 | 1.0 | 3.0 | 0.00 | 0.00 | 0.00 | 78 | 1015.9 |
| 20260905212515 | 78 | 69 | 0.0 | 3.0 | 0.00 | 0.00 | 0.00 | 78 | 1016.2 |
| 20260905212017 | 78 | 146 | 1.0 | 3.0 | 0.00 | 0.00 | 0.00 | 78 | 1016.2 |
| 20260905211515 | 78 | 82 | 0.0 | 5.0 | 0.00 | 0.00 | 0.00 | 78 | 1016.2 |
| 20260905211012 | 78 | 148 | 0.0 | 5.0 | 0.00 | 0.00 | 0.00 | 77 | 1016.1 |
| 20260905210509 | 79 | 82 | 0.0 | 4.0 | 0.00 | 0.00 | 0.00 | 77 | 1016.1 |
| 20260905210015 | 79 | 105 | 1.0 | 5.0 | 0.00 | 0.00 | 0.00 | 77 | 1016.2 |
| 20260905205512 | 79 | 17 | 1.0 | 5.0 | 0.00 | 0.00 | 0.00 | 77 | 1016.3 |
| 20260905205012 | 79 | 343 | 1.0 | 3.0 | 0.00 | 0.00 | 0.00 | 77 | 1016.4 |
| 20260905204520 | 79 | 69 | 0.0 | 3.0 | 0.00 | 0.00 | 0.00 | 77 | 1016.5 |
| 20260905204009 | 79 | 140 | 0.0 | 5.0 | 0.00 | 0.00 | 0.00 | 77 | 1016.6 |
| 20260905203512 | 79 | 129 | 0.0 | 5.0 | 0.00 | 0.00 | 0.00 | 77 | 1016.6 |
| 20260905203028 | 80 | 285 | 0.0 | 5.0 | 0.00 | 0.00 | 0.00 | 76 | 1016.7 |
| 20260905202519 | 80 | 360 | 0.0 | 3.0 | 0.00 | 0.00 | 0.00 | 76 | 1016.8 |
| 20260905202010 | 80 | 143 | 0.0 | 3.0 | 0.00 | 0.00 | 0.00 | 76 | 1016.8 |
| 20260905201526 | 80 | 45 | 0.0 | 4.0 | 0.00 | 0.00 | 0.00 | 76 | 1017.0 |
| 20260905201018 | 80 | 34 | 1.0 | 4.0 | 0.00 | 0.00 | 0.00 | 76 | 1017.0 |
| 20260905200510 | 80 | 351 | 0.0 | 2.0 | 0.00 | 0.00 | 0.00 | 76 | 1017.1 |
| 20260905200020 | 79 | 352 | 0.0 | 2.0 | 0.00 | 0.00 | 0.00 | 77 | 1017.3 |
| 20260905195515 | 79 | 147 | 0.0 | 2.0 | 0.00 | 0.00 | 0.00 | 75 | 1017.3 |
| 20260905195008 | 79 | 147 | 0.0 | 2.0 | 0.00 | 0.00 | 0.00 | 76 | 1017.3 |
| 20260905194516 | 79 | 116 | 0.0 | 4.0 | 0.00 | 0.00 | 0.00 | 77 | 1017.4 |
| 20260905194014 | 79 | 131 | 1.0 | 4.0 | 0.00 | 0.00 | 0.00 | 77 | 1017.4 |
| 20260905193511 | 79 | 100 | 0.0 | 3.0 | 0.00 | 0.00 | 0.00 | 77 | 1017.5 |
| 20260905193015 | 79 | 187 | 0.0 | 2.0 | 0.00 | 0.00 | 0.00 | 77 | 1017.6 |
| 20260905192512 | 78 | 139 | 0.0 | 2.0 | 0.00 | 0.00 | 0.00 | 78 | 1017.5 |
| 20260905192015 | 78 | 159 | 0.0 | 2.0 | 0.00 | 0.00 | 0.00 | 77 | 1017.5 |
| 20260905191531 | 78 | 135 | 0.0 | 2.0 | 0.00 | 0.00 | 0.00 | 78 | 1017.6 |
| 20260905191012 | 78 | 73 | 0.0 | 3.0 | 0.00 | 0.00 | 0.00 | 76 | 1017.6 |
| 20260905190517 | 79 | 91 | 0.0 | 4.0 | 0.00 | 0.00 | 0.00 | 75 | 1017.6 |
| 20260905190023 | 81 | 150 | 1.0 | 4.0 | 0.00 | 0.00 | 0.00 | 74 | 1017.6 |
| 20260905185506 | 80 | 174 | 0.0 | 5.0 | 0.00 | 0.00 | 0.00 | 74 | 1017.6 |
| 20260905185010 | 80 | 146 | 1.0 | 5.0 | 0.00 | 0.00 | 0.00 | 73 | 1017.6 |
| 20260905184514 | 80 | 158 | 1.0 | 4.0 | 0.00 | 0.00 | 0.00 | 74 | 1017.7 |
| 20260905184007 | 80 | 165 | 1.0 | 7.0 | 0.00 | 0.00 | 0.00 | 76 | 1017.6 |
| 20260905183512 | 80 | 130 | 0.0 | 7.0 | 0.00 | 0.00 | 0.00 | 78 | 1017.6 |
| 20260905183021 | 78 | 142 | 0.0 | 4.0 | 0.00 | 0.00 | 0.00 | 78 | 1017.6 |
| 20260905182508 | 77 | 143 | 1.0 | 4.0 | 0.00 | 0.00 | 0.00 | 78 | 1017.8 |
| 20260905182010 | 77 | 135 | 0.0 | 3.0 | 0.00 | 0.00 | 0.00 | 81 | 1017.9 |
| 20260905181523 | 76 | 148 | 0.0 | 2.0 | 0.00 | 0.00 | 0.00 | 81 | 1018.0 |
| 20260905181015 | 76 | 147 | 1.0 | 2.0 | 0.00 | 0.00 | 0.00 | 81 | 1017.9 |
| 20260905180506 | 77 | 152 | 0.0 | 2.0 | 0.00 | 0.00 | 0.00 | 80 | 1018.1 |
| 20260905180029 | 77 | 115 | 0.0 | 2.0 | 0.00 | 0.00 | 0.00 | 79 | 1018.0 |
| 20260905175515 | 77 | 115 | 0.0 | 3.0 | 0.00 | 0.00 | 0.00 | 80 | 1018.1 |
| 20260905175008 | 77 | 13 | 0.0 | 3.0 | 0.00 | 0.00 | 0.00 | 80 | 1018.0 |
| 20260905174510 | 77 | 360 | 1.0 | 3.0 | 0.00 | 0.00 | 0.00 | 80 | 1018.3 |
| 20260905174007 | 77 | 334 | 0.0 | 2.0 | 0.00 | 0.00 | 0.00 | 81 | 1018.3 |
| 20260905173510 | 77 | 18 | 0.0 | 2.0 | 0.00 | 0.00 | 0.00 | 81 | 1018.2 |
| 20260905173011 | 77 | 22 | 0.0 | 2.0 | 0.00 | 0.00 | 0.00 | 82 | 1018.3 |
| 20260905172511 | 76 | 348 | 0.0 | 2.0 | 0.00 | 0.00 | 0.00 | 81 | 1018.4 |
| 20260905172013 | 76 | 348 | 0.0 | 2.0 | 0.00 | 0.00 | 0.00 | 82 | 1018.4 |
| 20260905171535 | 76 | 5 | 0.0 | 2.0 | 0.00 | 0.00 | 0.00 | 82 | 1018.5 |
| 20260905171009 | 76 | 22 | 0.0 | 2.0 | 0.00 | 0.00 | 0.00 | 82 | 1018.5 |
| 20260905170514 | 76 | 5 | 0.0 | 2.0 | 0.00 | 0.00 | 0.00 | 82 | 1018.4 |
| 20260905170030 | 76 | 48 | 0.0 | 2.0 | 0.00 | 0.00 | 0.00 | 82 | 1018.4 |
| 20260905165507 | 76 | 121 | 0.0 | 3.0 | 0.00 | 0.00 | 0.00 | 83 | 1018.5 |
| 20260905165010 | 76 | 15 | 1.0 | 3.0 | 0.00 | 0.00 | 0.00 | 83 | 1018.4 |
| 20260905164528 | 76 | 38 | 0.0 | 4.0 | 0.00 | 0.00 | 0.00 | 83 | 1018.2 |
| 20260905164018 | 76 | 169 | 1.0 | 4.0 | 0.00 | 0.00 | 0.00 | 82 | 1018.2 |
| 20260905163514 | 76 | 106 | 1.0 | 4.0 | 0.00 | 0.00 | 0.00 | 83 | 1018.0 |
| 20260905163015 | 75 | 42 | 0.0 | 2.0 | 0.00 | 0.00 | 0.00 | 83 | 1018.0 |
| 20260905162512 | 75 | 34 | 0.0 | 2.0 | 0.00 | 0.00 | 0.00 | 84 | 1018.0 |
| 20260905162013 | 75 | 133 | 0.0 | 2.0 | 0.00 | 0.00 | 0.00 | 84 | 1018.0 |
| 20260905161525 | 75 | 105 | 0.0 | 3.0 | 0.00 | 0.00 | 0.00 | 84 | 1018.1 |
| 20260905161010 | 75 | 45 | 0.0 | 4.0 | 0.00 | 0.00 | 0.00 | 84 | 1018.1 |
| 20260905160515 | 75 | 13 | 0.0 | 4.0 | 0.00 | 0.00 | 0.00 | 84 | 1018.1 |
| 20260905160044 | 75 | 87 | 0.0 | 3.0 | 0.00 | 0.00 | 0.00 | 85 | 1018.1 |
| 20260905155513 | 75 | 55 | 0.0 | 3.0 | 0.00 | 0.00 | 0.00 | 85 | 1018.1 |
| 20260905155013 | 74 | 78 | 0.0 | 2.0 | 0.00 | 0.00 | 0.00 | 85 | 1018.0 |
| 20260905154532 | 74 | 117 | 0.0 | 2.0 | 0.00 | 0.00 | 0.00 | 85 | 1018.0 |
| 20260905154014 | 74 | 51 | 0.0 | 3.0 | 0.00 | 0.00 | 0.00 | 86 | 1018.0 |
| 20260905153516 | 74 | 22 | 0.0 | 3.0 | 0.00 | 0.00 | 0.00 | 86 | 1017.9 |
| 20260905153036 | 74 | 47 | 0.0 | 4.0 | 0.00 | 0.00 | 0.00 | 86 | 1017.9 |
| 20260905152511 | 74 | 119 | 0.0 | 5.0 | 0.00 | 0.00 | 0.00 | 87 | 1017.9 |
| 20260905152016 | 73 | 294 | 1.0 | 5.0 | 0.00 | 0.00 | 0.00 | 87 | 1017.9 |
| 20260905151517 | 73 | 5 | 0.0 | 4.0 | 0.00 | 0.00 | 0.00 | 88 | 1017.9 |
| 20260905151011 | 73 | 13 | 0.0 | 4.0 | 0.00 | 0.00 | 0.00 | 88 | 1017.9 |
| 20260905150511 | 73 | 321 | 0.0 | 3.0 | 0.00 | 0.00 | 0.00 | 89 | 1017.8 |
| 20260905150024 | 73 | 342 | 0.0 | 2.0 | 0.00 | 0.00 | 0.00 | 89 | 1017.6 |
| 20260905145519 | 72 | 82 | 0.0 | 3.0 | 0.00 | 0.00 | 0.00 | 90 | 1017.6 |
| 20260905145014 | 72 | 239 | 0.0 | 3.0 | 0.00 | 0.00 | 0.00 | 90 | 1017.6 |
| 20260905144529 | 72 | 102 | 0.0 | 3.0 | 0.00 | 0.00 | 0.00 | 91 | 1017.6 |
| 20260905144018 | 72 | 347 | 0.0 | 3.0 | 0.00 | 0.00 | 0.00 | 91 | 1017.6 |
| 20260905143516 | 71 | 136 | 0.0 | 2.0 | 0.00 | 0.00 | 0.00 | 91 | 1017.6 |
| 20260905143020 | 71 | 135 | 0.0 | 2.0 | 0.00 | 0.00 | 0.00 | 91 | 1017.5 |
| 20260905142519 | 71 | 194 | 0.0 | 3.0 | 0.00 | 0.00 | 0.00 | 91 | 1017.5 |
| 20260905142017 | 71 | 13 | 0.0 | 3.0 | 0.00 | 0.00 | 0.00 | 92 | 1017.4 |
| 20260905141533 | 71 | 59 | 0.0 | 3.0 | 0.00 | 0.00 | 0.00 | 91 | 1017.4 |
| 20260905141015 | 71 | 44 | 0.0 | 3.0 | 0.00 | 0.00 | 0.00 | 91 | 1017.3 |
| 20260905140517 | 71 | 296 | 0.0 | 2.0 | 0.00 | 0.00 | 0.00 | 91 | 1017.3 |
| 20260905140021 | 71 | 30 | 0.0 | 4.0 | 0.00 | 0.00 | 0.00 | 91 | 1017.3 |
| 20260905135512 | 71 | 9 | 0.0 | 4.0 | 0.00 | 0.00 | 0.00 | 91 | 1017.3 |
| 20260905135014 | 71 | 40 | 0.0 | 3.0 | 0.00 | 0.00 | 0.00 | 91 | 1017.2 |
| 20260905134528 | 70 | 13 | 0.0 | 2.0 | 0.00 | 0.00 | 0.00 | 91 | 1017.2 |
| 20260905134016 | 70 | 346 | 0.0 | 2.0 | 0.00 | 0.00 | 0.00 | 91 | 1017.1 |
| 20260905133515 | 70 | 62 | 0.0 | 3.0 | 0.00 | 0.00 | 0.00 | 91 | 1017.0 |
| 20260905133029 | 70 | 32 | 0.0 | 3.0 | 0.00 | 0.00 | 0.00 | 91 | 1017.0 |
| 20260905132517 | 70 | 57 | 0.0 | 2.0 | 0.00 | 0.00 | 0.00 | 91 | 1016.9 |
| 20260905132012 | 70 | 130 | 0.0 | 2.0 | 0.00 | 0.00 | 0.00 | 91 | 1016.8 |
| 20260905131528 | 70 | 162 | 0.0 | 2.0 | 0.00 | 0.00 | 0.00 | 91 | 1016.6 |
| 20260905131015 | 70 | 122 | 0.0 | 2.0 | 0.00 | 0.00 | 0.00 | 91 | 1016.5 |
| 20260905130518 | 70 | 349 | 0.0 | 2.0 | 0.00 | 0.00 | 0.00 | 91 | 1016.4 |
| 20260905130015 | 70 | 44 | 0.0 | 2.0 | 0.00 | 0.00 | 0.00 | 91 | 1016.3 |
| 20260905125511 | 71 | 77 | 0.0 | 3.0 | 0.00 | 0.00 | 0.00 | 91 | 1016.2 |
| 20260905125010 | 71 | 34 | 1.0 | 3.0 | 0.00 | 0.00 | 0.00 | 91 | 1016.0 |
| 20260905124520 | 71 | 31 | 0.0 | 2.0 | 0.00 | 0.00 | 0.00 | 91 | 1015.9 |
| 20260905124013 | 71 | 258 | 0.0 | 4.0 | 0.00 | 0.00 | 0.00 | 91 | 1015.8 |
| 20260905123515 | 71 | 346 | 0.0 | 4.0 | 0.00 | 0.00 | 0.00 | 91 | 1015.7 |
| 20260905123017 | 71 | 34 | 0.0 | 5.0 | 0.00 | 0.00 | 0.00 | 91 | 1015.6 |
| 20260905122516 | 71 | 84 | 0.0 | 5.0 | 0.00 | 0.00 | 0.00 | 91 | 1015.7 |
| 20260905122018 | 71 | 5 | 0.0 | 3.0 | 0.00 | 0.00 | 0.00 | 91 | 1015.7 |
| 20260905121516 | 71 | 38 | 0.0 | 3.0 | 0.00 | 0.00 | 0.00 | 91 | 1015.6 |
| 20260905121013 | 71 | 28 | 0.0 | 3.0 | 0.00 | 0.00 | 0.00 | 91 | 1015.7 |
| 20260905120516 | 71 | 16 | 0.0 | 2.0 | 0.00 | 0.00 | 0.00 | 91 | 1015.6 |
| 20260905120051 | 71 | 31 | 0.0 | 2.0 | 0.00 | 0.00 | 0.00 | 91 | 1015.7 |
| 20260905115509 | 71 | 342 | 0.0 | 2.0 | 0.00 | 0.00 | 0.00 | 91 | 1015.7 |
| 20260905115011 | 71 | 312 | 0.0 | 2.0 | 0.00 | 0.00 | 0.00 | 91 | 1015.7 |
| 20260905114522 | 71 | 333 | 0.0 | 2.0 | 0.00 | 0.00 | 0.00 | 91 | 1015.7 |
| 20260905114011 | 71 | 49 | 0.0 | 2.0 | 0.00 | 0.00 | 0.00 | 91 | 1015.7 |
| 20260905113512 | 71 | 31 | 0.0 | 3.0 | 0.00 | 0.00 | 0.00 | 91 | 1015.7 |
| 20260905113030 | 71 | 36 | 1.0 | 3.0 | 0.00 | 0.00 | 0.00 | 91 | 1015.6 |
| 20260905112516 | 71 | 28 | 0.0 | 1.0 | 0.00 | 0.00 | 0.00 | 91 | 1015.5 |
| 20260905112010 | 71 | 18 | 0.0 | 1.0 | 0.00 | 0.00 | 0.00 | 91 | 1015.5 |
| 20260905111542 | 71 | 18 | 0.0 | 1.0 | 0.00 | 0.00 | 0.00 | 91 | 1015.4 |
| 20260905111016 | 71 | 24 | 0.0 | 1.0 | 0.00 | 0.00 | 0.00 | 90 | 1015.5 |
| 20260905110519 | 71 | 24 | 0.0 | 3.0 | 0.00 | 0.00 | 0.00 | 90 | 1015.4 |
| 20260905110024 | 71 | 43 | 0.0 | 3.0 | 0.00 | 0.00 | 0.00 | 90 | 1015.5 |
| 20260905105516 | 71 | 5 | 0.0 | 1.0 | 0.00 | 0.00 | 0.00 | 90 | 1015.4 |
| 20260905105016 | 70 | 5 | 0.0 | 1.0 | 0.00 | 0.00 | 0.00 | 90 | 1015.4 |
| 20260905104517 | 70 | 5 | 0.0 | 1.0 | 0.00 | 0.00 | 0.00 | 90 | 1015.4 |
| 20260905104015 | 70 | 5 | 0.0 | 2.0 | 0.00 | 0.00 | 0.00 | 90 | 1015.4 |
| 20260905103514 | 70 | 5 | 0.0 | 2.0 | 0.00 | 0.00 | 0.00 | 90 | 1015.3 |
| 20260905103031 | 70 | 11 | 0.0 | 2.0 | 0.00 | 0.00 | 0.00 | 90 | 1015.4 |
| 20260905102512 | 70 | 360 | 0.0 | 2.0 | 0.00 | 0.00 | 0.00 | 90 | 1015.3 |
| 20260905102012 | 70 | 311 | 0.0 | 1.0 | 0.00 | 0.00 | 0.00 | 90 | 1015.5 |
| 20260905101529 | 70 | 311 | 0.0 | 3.0 | 0.00 | 0.00 | 0.00 | 90 | 1015.4 |
| 20260905101015 | 70 | 352 | 0.0 | 3.0 | 0.00 | 0.00 | 0.00 | 89 | 1015.1 |
| 20260905100515 | 70 | 19 | 0.0 | 2.0 | 0.00 | 0.00 | 0.00 | 89 | 1014.9 |
| 20260905100010 | 70 | 47 | 0.0 | 2.0 | 0.00 | 0.00 | 0.00 | 89 | 1014.8 |
| 20260905095506 | 70 | 314 | 0.0 | 3.0 | 0.00 | 0.00 | 0.00 | 89 | 1014.7 |
| 20260905095010 | 70 | 73 | 0.0 | 3.0 | 0.00 | 0.00 | 0.00 | 89 | 1014.7 |
| 20260905094503 | 70 | 352 | 0.0 | 1.0 | 0.00 | 0.00 | 0.00 | 89 | 1014.7 |
| 20260905094009 | 70 | 352 | 0.0 | 1.0 | 0.00 | 0.00 | 0.00 | 89 | 1014.6 |
| 20260905093511 | 70 | 11 | 0.0 | 1.0 | 0.00 | 0.00 | 0.00 | 88 | 1014.7 |
| 20260905093017 | 70 | 5 | 0.0 | 1.0 | 0.00 | 0.00 | 0.00 | 89 | 1014.7 |
| 20260905092505 | 70 | 16 | 0.0 | 1.0 | 0.00 | 0.00 | 0.00 | 88 | 1014.7 |
| 20260905092008 | 70 | 351 | 0.0 | 2.0 | 0.00 | 0.00 | 0.00 | 88 | 1014.7 |
| 20260905091525 | 70 | 5 | 0.0 | 3.0 | 0.00 | 0.00 | 0.00 | 88 | 1014.8 |
| 20260905091003 | 70 | 352 | 0.0 | 3.0 | 0.00 | 0.00 | 0.00 | 88 | 1014.9 |
| 20260905090503 | 70 | 5 | 0.0 | 2.0 | 0.00 | 0.00 | 0.00 | 88 | 1015.0 |
| 20260905090008 | 70 | 44 | 0.0 | 4.0 | 0.00 | 0.00 | 0.00 | 88 | 1015.0 |
| 20260905085504 | 70 | 69 | 1.0 | 5.0 | 0.00 | 0.00 | 0.00 | 88 | 1015.0 |
| 20260905085004 | 70 | 333 | 0.0 | 5.0 | 0.00 | 0.00 | 0.00 | 87 | 1015.1 |
| 20260905084509 | 70 | 350 | 1.0 | 4.0 | 0.00 | 0.00 | 0.00 | 87 | 1015.1 |
| 20260905084007 | 71 | 352 | 0.0 | 2.0 | 0.00 | 0.00 | 0.00 | 87 | 1015.2 |
| 20260905083507 | 71 | 352 | 0.0 | 3.0 | 0.00 | 0.00 | 0.00 | 87 | 1015.3 |
| 20260905083010 | 71 | 16 | 0.0 | 3.0 | 0.00 | 0.00 | 0.00 | 87 | 1015.2 |
| 20260905082510 | 71 | 352 | 0.0 | 3.0 | 0.00 | 0.00 | 0.00 | 87 | 1015.2 |
| 20260905082010 | 71 | 17 | 0.0 | 3.0 | 0.00 | 0.00 | 0.00 | 87 | 1015.1 |
| 20260905081509 | 71 | 32 | 0.0 | 5.0 | 0.00 | 0.00 | 0.00 | 87 | 1015.2 |
| 20260905081008 | 71 | 327 | 0.0 | 5.0 | 0.00 | 0.00 | 0.00 | 87 | 1015.2 |
| 20260905080511 | 71 | 339 | 1.0 | 4.0 | 0.00 | 0.00 | 0.00 | 87 | 1015.3 |
| 20260905080032 | 71 | 23 | 1.0 | 4.0 | 0.00 | 0.00 | 0.00 | 86 | 1015.3 |
| 20260905075507 | 72 | 352 | 1.0 | 4.0 | 0.00 | 0.00 | 0.00 | 86 | 1015.2 |
| 20260905075015 | 72 | 360 | 1.0 | 3.0 | 0.00 | 0.00 | 0.00 | 86 | 1015.2 |
| 20260905074507 | 72 | 32 | 0.0 | 3.0 | 0.00 | 0.00 | 0.00 | 86 | 1015.1 |
| 20260905074006 | 72 | 26 | 0.0 | 2.0 | 0.00 | 0.00 | 0.00 | 85 | 1015.1 |
| 20260905073506 | 72 | 5 | 0.0 | 1.0 | 0.00 | 0.00 | 0.00 | 85 | 1015.1 |
| 20260905073010 | 72 | 5 | 0.0 | 1.0 | 0.00 | 0.00 | 0.00 | 85 | 1015.1 |
| 20260905072508 | 72 | 5 | 0.0 | 3.0 | 0.00 | 0.00 | 0.00 | 85 | 1015.2 |
| 20260905072007 | 72 | 5 | 0.0 | 3.0 | 0.00 | 0.00 | 0.00 | 85 | 1015.1 |
| 20260905071519 | 73 | 5 | 1.0 | 3.0 | 0.00 | 0.00 | 0.00 | 85 | 1015.1 |
| 20260905071014 | 73 | 16 | 0.0 | 2.0 | 0.00 | 0.00 | 0.00 | 85 | 1015.1 |